Regional Weather Roundup
Issued by NWS

Home | Current Version | Previous Version | Graphics & Text | Print | Product List | Glossary On
Versions: 1 2 3 4 5 6 7 8 9 10 11 12 13 14 15 16 17 18 19 20 21 22 23 24 25 26 27 28 29 30 31 32 33 34 35 36 37 38 39 40 41 42 43 44 45 46 47 48 49 50
000
ASUS45 KTFX 230219
RWRMT
MONTANA HOURLY WEATHER ROUNDUP
NATIONAL WEATHER SERVICE GREAT FALLS MT
819 PM MDT TUE JUL 22 2014

NOTE: "FAIR" INDICATES FEW OR NO CLOUDS BELOW 12000 FEET WITH NO
SIGNIFICANT WEATHER AND/OR OBSTRUCTIONS TO VISIBILITY.

* THESE STATIONS ARE NOT UNDER NWS QUALITY CONTROL. THEY DO NOT
   REPORT WEATHER SUCH AS PRECIPITATION OR FOG.

MTZ001>007-043-230300-
WEST OF THE DIVIDE
CITY           SKY/WX    TMP DP  RH WIND       PRES   REMARKS
KALISPELL      MOCLDY    70  59  68 NW3       30.16S
MISSOULA       PTCLDY    81  46  29 N17G30    30.09R
BUTTE          CLOUDY    75  46  36 W6        30.25R
MULLAN PASS    PTCLDY    57  48  72 NW5       30.29S
* ESSEX        N/A       70  53  55 NW4G14     N/A
* LINCOLN      N/A       70  61  73 NE2G11     N/A
* LOOKOUT PASS N/A       66  56  70 N/A        N/A
* POLSON       N/A       64  53  68 N2G13      N/A
* RONAN APT    MOCLDY    75  55  50 N13G20     N/A
* SEELEY LAKE  N/A       84  45  26 N6         N/A
* THOMP F APT  MOCLDY    79  37  22 S10G17     N/A
* YAAK HILL    N/A       76  50  40 N/A        N/A
$$

MTZ008-052>055-230300-
SOUTHWEST MONTANA
CITY           SKY/WX    TMP DP  RH WIND       PRES   REMARKS
BOZEMAN        PTCLDY    79  54  42 NE5       30.17F
DILLON         CLOUDY    75  55  50 NE7       30.19R
W YELLOWSTONE  MOCLDY    73  41  32 S5        30.35S
* THREE FORKS  MOCLDY    79  61  54 N5         N/A
* BOULDER HILL N/A       71  50  48 N2         N/A
* MONIDA PASS  N/A       76  37  24 S9G17      N/A
* RAYNOLDS PAS N/A       74  48  40 SE9        N/A
* WHITEHALL    N/A       77  54  45 E3G8       N/A
* WISE RIVER   N/A       70  34  27 W14G30     N/A
$$

MTZ009>010-012-014-046-048-049-054-230300-
EAST SLOPES AND CENTRAL MONTANA
CITY           SKY/WX    TMP DP  RH WIND       PRES   REMARKS
CUT BANK       CLEAR     75  46  36 E8        30.18S
GREAT FALLS    MOCLDY    75  54  48 NE12      30.14S
HELENA         FAIR      81  54  39 E6        30.12F
MALMSTROM AFB  MOCLDY    77  54  45 SE10G20   30.16R
* CONRAD       PTCLDY    77  59  54 NE6        N/A
* DEARBORN     N/A       74  60  62 S1         N/A
* EAST GLACIER N/A       69  52  55 SW1        N/A
* MONARCH      N/A       70  53  55 SE4        N/A
* PENDROY      N/A       78  46  32 E11        N/A
* ROGERS PASS  N/A       69  49  49 N/A        N/A
* SAINT MARY   N/A       76  46  35 W5G14      N/A
* SWEET GRASS  N/A       73  46  38 NE13       N/A
* WHITE SULPH  N/A       66  50  56 NE7G15     N/A
$$

MTZ011-013-016-021-035-040-045-047-050-051-230300-
NORTH CENTRAL MONTANA
CITY           SKY/WX    TMP DP  RH WIND       PRES   REMARKS
HAVRE          CLEAR     82  52  35 E9        30.15S
LEWISTOWN      HVY RAIN  70  59  68 S15G20    30.27R VSB 1 3/4
* FORT BENTON  PTCLDY    82  50  33 E8        30.13S
* CHESTER      N/A       81  46  29 E6         N/A
* DENTON       N/A       77  52  42 NE8G13     N/A
* GEYSER       N/A       73  56  55 NE8        N/A
* JUDITH GAP   N/A       66  59  78 NE12       N/A
* LOMA         N/A       84  49  30 E14        N/A
$$

MTZ017>020-022>027-061-062-230300-
NORTHEAST MONTANA
CITY           SKY/WX    TMP DP  RH WIND       PRES   REMARKS
GLASGOW        PTCLDY    81  52  37 NE13      30.17S
GLENDIVE       MOCLDY    75  61  62 SE10      30.22R
JORDAN         CLEAR     81  52  37 E9        30.17S
SIDNEY         CLOUDY    77  57  50 NE7       30.20R
WOLF POINT     PTCLDY    82  50  33 E7        30.17R
* BEAVER HILL  N/A       70  61  73 SE11G17    N/A
* CIRCLE       N/A       77  55  47 NE3        N/A
* LINDSAY DVD  N/A       75  57  54 NE8        N/A
* NAVAJO       N/A       71  57  61 E6         N/A
$$

MTZ028>042-056>058-230300-
SOUTHCENTRAL AND SOUTHEAST MONTANA
CITY           SKY/WX    TMP DP  RH WIND       PRES   REMARKS
BAKER          MOCLDY    70 N/A N/A E12       30.23R
BILLINGS       CLOUDY    66  57  73 N13       30.19F
LIVINGSTON     MOCLDY    79  46  31 SW8       30.19R
MILES CITY     PTCLDY    75  61  62 NE15      30.17S
* LAUREL APT   CLOUDY    66  59  78 E7         N/A
* ROUNDUP APT  MOCLDY    70  55  59 N/A        N/A
* ALZADA       N/A       76  62  62 E11G18     N/A
* HYSHAM       N/A       78  55  45 E12G19     N/A
* LAME DEER    N/A       73  56  55 NE15G25    N/A
* REED POINT   N/A       68  61  78 SW2        N/A
* ROSCOE HILL  N/A       72  41  33 SE8        N/A
$$

REGIONAL REPORTS...DAKOTAS
CITY           SKY/WX    TMP DP  RH WIND       PRES   REMARKS
WILLISTON      MOCLDY    79  63  58 E12       30.19R
DICKINSON      CLOUDY    70  59  68 SE5       30.18F
CROSBY         N/A       68  66  93 E7        30.23R
TIOGA          PTCLDY    72  66  81 E8        30.26R
WATFORD CITY   PTCLDY    73  63  71 E6        30.17S
BISMARCK       PTCLDY    73  64  74 E6        30.24R
GRAND FORKS    PTCLDY    68  61  78 N7        30.20R
FARGO          CLEAR     72  57  59 N7        30.20R
BUFFALO SD     CLOUDY    66  63  90 E22       30.18R
RAPID CITY     MOCLDY    72  63  73 SE12      30.18F
$$

REGIONAL REPORTS...WYOMING/IDAHO/WASHINGTON
CITY           SKY/WX    TMP DP  RH WIND       PRES   REMARKS
GILLETTE       CLEAR     75  57  54 SE13      30.20R
SHERIDAN       PTCLDY    81  55  41 W5        30.14F HI  81
CODY           PTCLDY    79  46  31 N15G21    30.23R
YELLOWSTONE LA MOCLDY    72  41  33 CALM      30.47F
SALMON         CLOUDY    82  45  27 N14G23    30.05R
MULLAN PASS    PTCLDY    57  48  72 NW5       30.29S
SAND POINT     PTCLDY    72  54  53 NE7       30.12S
SPOKANE        MOCLDY    77  52  42 NE8       30.08S
$$

REGIONAL REPORTS...ALBERTA
CITY           SKY/WX    TMP DP  RH WIND       PRES   REMARKS
CALGARY        MOCLDY    70  48  46 S14G22    30.09F
LETHBRIDGE     FAIR      72  59  64 SE5       30.15S
MEDICINE HAT   MOCLDY    68  61  78 SE8       30.15F
EDMONTON       MOCLDY    72  57  59 SE13G21   30.08F
WATERTON GATE  N/A       68  50  53 SW5        N/A
CARDSTON       N/A       72  57  59 NE2        N/A
MILK RIVER     N/A       72  45  38 E12        N/A
$$

REGIONAL REPORTS...SASKATCHEWAN
CITY           SKY/WX    TMP DP  RH WIND       PRES   REMARKS
SWIFT CURRENT  PTCLDY    70  59  68 SE7       30.21S
REGINA         CLOUDY    72  54  53 E8        30.24S
VAL MARIE      N/A       70  57  64 E8         N/A
ASSINIBOIA     N/A       70  57  64 E8         N/A
CORONACH       N/A       72  57  59 NE8        N/A

$$




USA.gov is the U.S. government's official web portal to all federal, state and local government web resources and services.